[[{"header":{"parameterUnit":"m.s-1","parameterCategory":1,"la1":30.2991,"la2":30.254,"lo1":-89.0895,"lo2":-89.0444,"dy":0.0017,"dx":0.0017,"nx":28,"ny":28,"refTime":"2024-04-23T21:00:00:Z","depth":0,"parameterNumber":2,"parameterNumberName":"U-component_of_WINDS"},"data":[0,0,0,0,0,0,0,0,0,0,0,0,0,0,0,0,0,0,0,0,0,0,0,0,0,0,0,0,0,0,0,0,0,0,0,0,0,0,0,0,0,0,0,0,0,0,0,0,0,0,0,0,0,0,0,0,0,0,-1.2121,-1.212,0,-1.2103,-1.2103,-1.2103,-1.2012,-1.201,-1.2008,-1.2005,-1.199,-1.1991,-1.1993,0,0,0,0,0,0,0,0,0,0,0,0,0,-1.2079,-1.208,-1.2121,-1.212,-1.212,-1.2103,-1.2103,-1.2103,-1.2012,-1.201,-1.2007,-1.2004,-1.1989,-1.1991,-1.1993,0,0,0,0,0,0,0,0,0,0,0,0,0,-1.2083,-1.208,-1.2121,-1.2073,-1.2068,-1.2103,-1.2103,-1.2103,-1.2013,-1.201,-1.2006,-1.2003,-1.1988,-1.1991,-1.1993,-1.2073,0,0,-1.2001,-1.2002,0,0,0,0,0,0,0,0,-1.2083,-1.2085,-1.208,-1.2076,-1.2071,-1.2056,-1.2082,-1.2093,-1.2014,-1.2034,-1.2005,-1.2002,-1.2015,-1.2015,-1.2019,-1.2072,-1.2072,-1.2001,-1.2002,-1.2003,-1.2004,0,0,0,0,0,0,0,-1.2083,-1.2085,-1.2114,-1.208,-1.2075,-1.2053,-1.205,-1.2084,-1.2043,-1.2032,-1.2025,-1.2024,-1.2012,-1.2016,-1.2018,-1.2071,-1.2001,-1.2003,-1.2004,-1.2005,-1.2192,-1.2196,0,0,0,0,0,0,-1.2089,-1.2085,-1.2114,-1.2113,-1.2069,-1.2057,-1.2053,-1.2064,-1.2042,-1.2036,-1.2027,-1.202,-1.2014,-1.2015,-1.2017,-1.211,-1.2003,-1.2005,-1.2007,-1.2189,-1.2193,-1.2197,0,0,0,0,0,0,-1.2088,-1.2092,-1.2115,-1.2097,-1.2099,-1.2061,-1.2074,-1.2066,-1.207,-1.2039,-1.2031,-1.204,-1.2011,-1.2013,-1.206,-1.2108,-1.2007,-1.2009,-1.2185,-1.219,-1.2195,-1.2296,0,0,0,0,0,0,-1.2087,-1.2092,-1.2121,-1.2099,-1.21,-1.2158,-1.2077,-1.2068,-1.2075,-1.2065,-1.2048,-1.2042,-1.2009,-1.2057,-1.2063,-1.2109,-1.2011,-1.218,-1.2187,-1.2193,-1.2288,-1.2304,-1.2318,0,0,0,0,0,-1.2086,-1.2151,-1.2123,-1.2127,-1.2135,-1.2161,-1.2162,-1.2121,-1.2079,-1.2108,-1.2088,-1.2043,-1.2102,-1.2063,-1.2068,-1.2116,-1.2177,-1.2185,-1.2193,-1.2282,-1.2301,-1.2317,0,0,0,0,0,0,-1.218,-1.2147,-1.2116,-1.2175,-1.2172,-1.2145,-1.2181,-1.2143,-1.2152,-1.2143,-1.2094,-1.2091,-1.2145,-1.2135,-1.2092,-1.2194,-1.2132,-1.2141,-1.2198,-1.2216,-1.223,-1.2231,-1.2013,0,0,0,0,0,-1.2208,-1.223,-1.22,-1.2255,-1.2255,-1.2219,-1.2228,-1.2198,-1.2193,-1.2191,-1.2174,-1.2171,-1.2189,-1.2202,-1.2217,-1.2287,-1.2283,-1.2323,-1.2338,-1.235,-1.2359,-1.2397,-1.2415,-1.2223,-1.2223,-1.2223,0,0,-1.2265,-1.2249,-1.2267,-1.2274,-1.2267,-1.2293,-1.2218,-1.2248,-1.2267,-1.2195,-1.2238,-1.2227,-1.222,-1.228,-1.2305,-1.2273,-1.2411,-1.236,-1.237,-1.2372,-1.2407,-1.2425,-1.2441,-1.2228,-1.2227,-1.2226,0,0,-1.2382,-1.2372,-1.2417,-1.2413,-1.2405,-1.238,-1.2392,-1.2372,-1.2361,-1.2404,-1.2351,-1.2374,-1.2405,-1.2404,-1.2407,-1.2527,-1.2486,-1.2533,-1.261,-1.2647,-1.2663,-1.2676,-1.2719,-1.2735,-1.2542,-1.2542,-1.2542,0,-1.2454,-1.249,-1.2446,-1.248,-1.2485,-1.2422,-1.2468,-1.2466,-1.2464,-1.247,-1.2434,-1.2474,-1.2465,-1.2524,-1.2553,-1.2558,-1.257,-1.2534,-1.2664,-1.2677,-1.2688,-1.2729,-1.2746,-1.2548,-1.2547,-1.2547,-1.2546,0,-1.2579,-1.2605,-1.2643,-1.2642,-1.2652,-1.2692,-1.2656,-1.2671,-1.2641,-1.2621,-1.2667,-1.2654,-1.2666,-1.2678,-1.2649,-1.2734,-1.2714,-1.2672,-1.2609,-1.2713,-1.2751,-1.2766,-1.2556,-1.2554,-1.2552,-1.2551,0,0,-1.2753,-1.2729,-1.2744,-1.2743,-1.273,-1.275,-1.2789,-1.28,-1.2815,-1.2816,-1.2847,-1.2877,-1.2839,-1.2843,-1.2813,-1.2846,-1.2943,-1.28,-1.2799,-1.2827,-1.3037,-1.3069,-1.3088,-1.2916,-1.2919,-1.2921,-1.3038,0,-1.2866,-1.2929,-1.2892,-1.296,-1.2985,-1.2927,-1.296,-1.2957,-1.294,-1.2959,-1.2941,-1.2963,-1.291,-1.2913,-1.2943,-1.2925,-1.2985,-1.2916,-1.2946,-1.2948,-1.2949,-1.3107,-1.314,-1.3251,-1.3053,-1.3055,-1.3057,0,-1.3005,-1.3012,-1.3084,-1.3068,-1.3077,-1.3107,-1.3116,-1.3135,-1.3131,-1.3116,-1.3122,-1.3085,-1.3123,-1.3062,-1.3114,-1.3068,-1.3079,-1.3072,-1.3076,-1.3077,-1.3008,-1.3113,-1.3285,-1.3302,-1.3079,-1.3078,-1.3076,0,-1.3125,-1.3153,-1.32,-1.3201,-1.3184,-1.3207,-1.3201,-1.3194,-1.3204,-1.3212,-1.3218,-1.3231,-1.3238,-1.325,-1.3218,-1.3175,-1.3275,-1.321,-1.3265,-1.3266,-1.3288,-1.3287,-1.3465,-1.3295,-1.3295,-1.3295,-1.3294,0,-1.3255,-1.3301,-1.3254,-1.3283,-1.3333,-1.3291,-1.3343,-1.3331,-1.3326,-1.3352,-1.3303,-1.3329,-1.3285,-1.3307,-1.3283,-1.3331,-1.3334,-1.3325,-1.3318,-1.3329,-1.333,-1.3335,-1.3326,-1.3299,-1.3298,-1.3297,-1.3297,0,-1.3397,-1.3368,-1.3415,-1.3395,-1.3391,-1.343,-1.3413,-1.344,-1.3421,-1.3455,-1.3461,-1.3431,-1.3455,-1.3424,-1.3445,-1.3429,-1.3495,-1.3476,-1.3496,-1.3491,-1.3547,-1.3543,-1.3734,-1.3757,-1.3573,-1.3575,-1.3576,0,-1.3482,-1.3516,-1.35,-1.3514,-1.3511,-1.3535,-1.3545,-1.3506,-1.3519,-1.3518,-1.3545,-1.3565,-1.3578,-1.362,-1.3601,-1.3617,-1.3599,-1.3665,-1.3601,-1.3612,-1.36,-1.3599,-1.3602,-1.3678,-1.368,-1.3682,-1.3683,0,-1.3635,-1.3619,-1.3635,-1.3647,-1.3661,-1.3668,-1.3672,-1.3687,-1.3646,-1.3664,-1.3687,-1.3698,-1.372,-1.3741,-1.3753,-1.3748,-1.371,-1.3704,-1.3717,-1.3729,-1.3739,-1.3735,-1.3532,-1.3699,-1.3698,-1.3696,-1.3696,-1.3695,-1.3751,-1.3779,-1.3773,-1.3793,-1.3793,-1.3798,-1.3823,-1.3807,-1.3826,-1.384,-1.3817,-1.3847,-1.3845,-1.3856,-1.3856,-1.388,-1.3852,-1.3871,-1.3876,-1.3882,-1.3891,-1.3736,-1.3882,-1.3882,-1.3881,-1.3881,-1.388,0,-1.3902,-1.3895,-1.3915,-1.3922,-1.3939,-1.3901,-1.3905,-1.3921,-1.3949,-1.3949,-1.3964,-1.3992,-1.4013,-1.3996,-1.4014,-1.4037,-1.402,-1.4043,-1.404,-1.404,-1.3915,-1.3901,-1.4056,-1.4056,-1.4056,-1.4056,-1.4056,-1.4056,-1.3982,-1.4028,-1.4013,-1.4059,-1.4052,-1.4081,-1.4087,-1.4092,-1.4093,-1.4127,-1.4143,-1.4132,-1.4127,-1.4144,-1.4162,-1.4156,-1.4165,-1.4194,-1.4183,-1.4066,-1.4049,-1.4032,-1.4019,-1.4197,-1.4197,-1.4307,-1.4308,-1.4308]},{"header":{"parameterUnit":"m.s-1","parameterCategory":1,"la1":30.2991,"la2":30.254,"lo1":-89.0895,"lo2":-89.0444,"dy":0.0017,"dx":0.0017,"nx":28,"ny":28,"refTime":"2024-04-23T21:00:00:Z","depth":0,"parameterNumber":3,"parameterNumberName":"V-component_of_WINDS"},"data":[0,0,0,0,0,0,0,0,0,0,0,0,0,0,0,0,0,0,0,0,0,0,0,0,0,0,0,0,0,0,0,0,0,0,0,0,0,0,0,0,0,0,0,0,0,0,0,0,0,0,0,0,0,0,0,0,0,0,2.1521,2.1521,0,2.1519,2.1519,2.1519,2.1573,2.1575,2.1576,2.1578,2.1574,2.1572,2.1571,0,0,0,0,0,0,0,0,0,0,0,0,0,2.1568,2.1566,2.1521,2.1521,2.1521,2.1519,2.1519,2.1519,2.1573,2.1575,2.1577,2.1578,2.1574,2.1573,2.1571,0,0,0,0,0,0,0,0,0,0,0,0,0,2.1555,2.1566,2.1521,2.1547,2.155,2.1519,2.1519,2.1519,2.1573,2.1575,2.1577,2.1579,2.1575,2.1573,2.1571,2.1514,0,0,2.1564,2.1563,0,0,0,0,0,0,0,0,2.1555,2.1553,2.1543,2.1545,2.1548,2.1549,2.1535,2.1517,2.1572,2.1564,2.1578,2.158,2.1564,2.1562,2.1557,2.1514,2.1514,2.1564,2.1563,2.1562,2.1561,0,0,0,0,0,0,0,2.1556,2.1553,2.152,2.1543,2.1546,2.1559,2.1559,2.1532,2.1551,2.1565,2.1569,2.1568,2.1565,2.1559,2.1558,2.1514,2.1564,2.1562,2.1561,2.156,2.1424,2.1422,0,0,0,0,0,0,2.1554,2.1554,2.152,2.152,2.1557,2.1556,2.1557,2.1546,2.1552,2.1555,2.1566,2.157,2.1562,2.156,2.1558,2.1492,2.1562,2.156,2.1558,2.1426,2.1423,2.1421,0,0,0,0,0,0,2.1555,2.155,2.152,2.1538,2.1535,2.1553,2.1541,2.1545,2.1539,2.1553,2.1557,2.1556,2.1564,2.1561,2.1525,2.1492,2.1559,2.1557,2.1429,2.1425,2.1422,2.1359,0,0,0,0,0,0,2.1556,2.155,2.1529,2.1537,2.1534,2.1487,2.1539,2.1544,2.1536,2.1541,2.1545,2.1548,2.1565,2.1528,2.1523,2.1491,2.1555,2.1432,2.1427,2.1423,2.1364,2.1354,2.1345,0,0,0,0,0,2.1557,2.1511,2.1528,2.1523,2.1508,2.1485,2.1483,2.1505,2.1533,2.1512,2.1521,2.1548,2.1497,2.1524,2.1518,2.1485,2.1434,2.1429,2.1423,2.1368,2.1356,2.1345,0,0,0,0,0,0,2.1497,2.1512,2.1531,2.1486,2.1484,2.1495,2.1468,2.1491,2.1481,2.1486,2.1513,2.1513,2.1473,2.1476,2.1505,2.1431,2.147,2.1464,2.143,2.1418,2.1409,2.1408,2.1553,0,0,0,0,0,2.1479,2.146,2.1474,2.1433,2.1431,2.145,2.1441,2.1458,2.1456,2.1455,2.1462,2.1459,2.1442,2.1431,2.1416,2.1365,2.1366,2.134,2.133,2.1323,2.1316,2.1289,2.1277,2.1404,2.1404,2.1404,0,0,2.1441,2.1447,2.1433,2.1421,2.1422,2.1401,2.1449,2.1424,2.1409,2.1452,2.1418,2.1422,2.1421,2.1377,2.1358,2.1378,2.1282,2.1316,2.131,2.1307,2.1282,2.127,2.126,2.14,2.1401,2.1401,0,0,2.136,2.1363,2.1329,2.1329,2.133,2.1343,2.1334,2.1341,2.1346,2.1313,2.1345,2.1327,2.1298,2.1296,2.1291,2.121,2.1234,2.1205,2.1155,2.1128,2.1118,2.1109,2.108,2.1069,2.1199,2.1199,2.1199,0,2.1312,2.1283,2.1309,2.1282,2.1276,2.1316,2.1281,2.1279,2.1274,2.1269,2.1292,2.1257,2.1259,2.1215,2.1195,2.119,2.1181,2.1204,2.1118,2.1109,2.1101,2.1073,2.1062,2.1195,2.1195,2.1196,2.1196,0,2.1223,2.1202,2.1175,2.117,2.1161,2.1131,2.1152,2.1139,2.1158,2.1168,2.1134,2.1137,2.1124,2.1116,2.1133,2.1074,2.1086,2.1113,2.1153,2.1085,2.1059,2.1049,2.119,2.1191,2.1192,2.1193,0,0,2.1103,2.1115,2.1104,2.1103,2.1107,2.109,2.1062,2.105,2.1039,2.1035,2.1011,2.0986,2.1011,2.1005,2.1023,2.1,2.0935,2.1029,2.103,2.1011,2.087,2.0849,2.0836,2.0952,2.095,2.0949,2.087,0,2.1024,2.0977,2.1,2.0949,2.093,2.0968,2.0943,2.0942,2.0952,2.0936,2.0946,2.0928,2.0963,2.096,2.0938,2.0947,2.0907,2.0954,2.0929,2.0928,2.0927,2.0823,2.08,2.0725,2.086,2.0858,2.0857,0,2.0926,2.0918,2.0866,2.0874,2.0867,2.0844,2.0835,2.082,2.0821,2.0829,2.0823,2.0846,2.0818,2.086,2.0821,2.0852,2.0844,2.0847,2.0845,2.0842,2.0887,2.0816,2.0702,2.069,2.0841,2.0843,2.0844,0,2.0842,2.0819,2.0785,2.0783,2.0791,2.0775,2.0777,2.078,2.0771,2.0764,2.0759,2.0748,2.0741,2.0732,2.0751,2.078,2.071,2.0753,2.0715,2.0715,2.0698,2.0698,2.0579,2.0694,2.0694,2.0695,2.0695,0,2.0751,2.0717,2.0748,2.0726,2.069,2.0717,2.0679,2.0686,2.0688,2.0669,2.0701,2.0681,2.0709,2.0692,2.0708,2.0673,2.067,2.0676,2.068,2.0672,2.0671,2.0666,2.0671,2.0692,2.0692,2.0693,2.0693,0,2.0651,2.067,2.0635,2.0647,2.0649,2.0621,2.0631,2.0611,2.0624,2.0598,2.0594,2.0612,2.0594,2.0614,2.0597,2.0607,2.056,2.0573,2.056,2.0563,2.0524,2.0527,2.0397,2.0381,2.0507,2.0506,2.0505,0,2.059,2.0565,2.0575,2.0564,2.0565,2.0548,2.054,2.0566,2.0556,2.0555,2.0535,2.0521,2.051,2.048,2.0491,2.0479,2.049,2.0445,2.0488,2.0481,2.0488,2.0489,2.0486,2.0436,2.0435,2.0433,2.0432,0,2.0481,2.0492,2.048,2.0471,2.046,2.0454,2.0451,2.044,2.0467,2.0454,2.0437,2.0429,2.0412,2.0397,2.0388,2.039,2.0415,2.0419,2.041,2.0401,2.0394,2.0396,2.0535,2.0421,2.0423,2.0423,2.0424,2.0424,2.0398,2.0378,2.0382,2.0367,2.0367,2.0363,2.0345,2.0356,2.0342,2.0331,2.0347,2.0325,2.0327,2.0317,2.0317,2.03,2.0319,2.0305,2.0301,2.0297,2.0291,2.0398,2.0298,2.0299,2.0299,2.0299,2.03,0,2.029,2.0295,2.0281,2.0275,2.0263,2.029,2.0287,2.0275,2.0256,2.0255,2.0245,2.0224,2.021,2.0221,2.0209,2.0193,2.0204,2.0188,2.0189,2.0189,2.0275,2.0284,2.018,2.018,2.018,2.018,2.018,2.018,2.0232,2.0199,2.021,2.0178,2.0182,2.0162,2.0158,2.0154,2.0154,2.0131,2.0119,2.0127,2.0131,2.0119,2.0107,2.0111,2.0104,2.0084,2.0092,2.0171,2.0183,2.0194,2.0203,2.0083,2.0083,2.0007,2.0006,2.0006]}]]